Temp
-4 -5 -4 -3 -4 -4 -4 -4 -5 -6 -5 -4 -4 -4 -4 -3 -3 -4 -4 -4 -4 -4 -4 -4 -4 -4 -4 -4 -4 -4 -4 -4 -4 -4 -4 -4 -4 -4 -4 -4 -4 -4 -4 -5
-4 -4 -3 -2 -4 -5 -5 -5 -5 -5 -5 -5 -5 -5 -4 -3 -3 -3 -4 -4 -4 -4 -4 -4 -4 -4 -4 -4 -4 -4 -4 -4 -4 -4 -4 -4 -4 -4 -4 -4 -4 -4 -4 -4
-4 -4 -4 -4 -4 -5 -5 -5 -6 -5 -6 -6 -6 -4 -5 -4 -4 -4 -3 -3 -4 -4 -4 -4 -4 -4 -4 -4 -4 -4 -4 -4 -4 -4 -4 -4 -4 -4 -4 -4 -4 -4 -4 -4
-5 -5 -5 -3 -3 -5 -5 -6 -5 -5 -5 -4 -4 -5 -4 -5 -4 -4 -4 -3 -3 -3 -4 -5 -4 -4 -4 -4 -4 -4 -4 -4 -4 -4 -4 -4 -4 -4 -4 -4 -4 -4 -4 -5
-5 -4 -4 -4 -5 -4 -5 -5 -4 -5 -5 -5 -4 -4 -5 -5 -5 -4 -4 -4 -4 -3 -4 -3 -6 -5 -6 -5 -5 -5 -4 -4 -4 -4 -4 -4 -4 -4 -5 -5 -5 -5 -5 -5
-3 -4 -4 -4 -5 -4 -4 -5 -5 -5 -5 -4 -5 -4 -6 -5 -5 -6 -5 -5 -5 -5 -6 -6 -6 -5 -6 -6 -6 -7 -6 -6 -5 -5 -5 -4 -4 -4 -5 -5 -5 -5 -5 -5
-5 -4 -4 -4 -4 -5 -5 -5 -5 -5 -5 -5 -5 -5 -6 -6 -4 -5 -5 -6 -6 -6 -7 -7 -7 -6 -6 -6 -6 -6 -6 -6 -6 -5 -5 -5 -5 -5 -5 -6 -6 -6 -6 -6
-5 -5 -5 -4 -4 -4 -5 -6 -4 -4 -5 -4 -6 -5 -4 -5 -5 -5 -6 -6 -7 -7 -7 -8 -7 -6 -5 -5 -4 -4 -5 -6 -6 -6 -5 -5 -5 -5 -5 -5 -5 -6 -6 -6
-5 -5 -6 -5 -4 -5 -5 -5 -4 -4 -4 -5 -5 -6 -6 -6 -6 -5 -6 -6 -7 -7 -7 -7 -7 -7 -6 -3 -3 -3 -4 -6 -7 -7 -6 -5 -5 -5 -5 -5 -5 -6 -6 -6
-5 -5 -6 -5 -5 -5 -5 -4 -4 -4 -4 -4 -5 -6 -6 -6 -6 -6 -6 -6 -5 -5 -6 -5 -6 -6 -7 -7 -5 -5 -4 -5 -7 -8 -7 -6 -6 -6 -6 -6 -6 -6 -6 -6
-5 -5 -5 -5 -5 -5 -5 -4 -4 -5 -4 -5 -6 -6 -5 -7 -7 -7 -7 -5 -5 -5 -5 -5 -5 -5 -5 -5 -6 -6 -6 -7 -7 -7 -6 -6 -6 -7 -7 -7 -7 -7 -7 -7
-5 -5 -6 -6 -6 -5 -5 -5 -5 -4 -4 -5 -5 -5 -6 -7 -7 -7 -7 -5 -5 -5 -5 -5 -5 -6 -6 -6 -6 -6 -6 -8 -8 -8 -7 -6 -5 -6 -7 -7 -8 -8 -8 -8
-5 -6 -6 -5 -6 -6 -6 -6 -6 -6 -6 -6 -5 -7 -6 -7 -6 -7 -6 -6 -5 -5 -4 -4 -4 -5 -5 -6 -6 -6 -7 -7 -7 -7 -7 -8 -7 -6 -6 -7 -8 -8 -8 -8
-6 -6 -6 -6 -6 -6 -6 -6 -6 -6 -6 -6 -6 -6 -6 -6 -7 -7 -6 -6 -6 -6 -5 -5 -5 -5 -5 -5 -5 -5 -6 -7 -8 -7 -6 -7 -8 -8 -8 -7 -8 -9 -9 -9
-5 -5 -5 -6 -6 -6 -6 -6 -6 -6 -6 -7 -6 -6 -6 -5 -5 -6 -5 -6 -6 -5 -5 -5 -5 -5 -5 -5 -5 -7 -6 -6 -7 -5 -7 -7 -7 -8 -8 -8 -9 -9 -9 -10
-4 -5 -5 -5 -5 -5 -5 -6 -7 -6 -6 -7 -7 -6 -6 -6 -6 -6 -6 -6 -5 -5 -5 -5 -5 -5 -5 -6 -6 -7 -7 -7 -7 -5 -6 -8 -7 -8 -9 -8 -9 -9 -10 -10
-7 -6 -5 -5 -6 -5 -5 -7 -7 -7 -7 -7 -7 -6 -6 -6 -6 -6 -6 -5 -5 -5 -5 -5 -5 -5 -5 -5 -6 -6 -6 -7 -6 -7 -9 -8 -8 -9 -9 -9 -10 -11 -10 -10
-6 -6 -5 -5 -5 -5 -6 -7 -7 -6 -6 -6 -6 -6 -5 -5 -6 -6 -6 -6 -5 -5 -4 -5 -5 -5 -5 -5 -5 -6 -7 -6 -6 -6 -8 -10 -9 -9 -10 -11 -11 -10 -10 -9
-6 -7 -7 -7 -7 -7 -6 -5 -6 -7 -6 -6 -6 -6 -6 -6 -6 -6 -5 -5 -5 -6 -5 -5 -6 -6 -6 -6 -6 -6 -7 -8 -8 -9 -9 -9 -10 -11 -11 -10 -10 -10 -9 -9
-7 -7 -7 -7 -7 -8 -5 -5 -5 -6 -6 -5 -5 -6 -6 -6 -5 -5 -5 -5 -5 -6 -6 -6 -6 -6 -6 -7 -6 -6 -7 -7 -7 -8 -8 -9 -9 -9 -9 -9 -10 -9 -9 -10
-7 -7 -7 -7 -7 -7 -7 -6 -5 -6 -6 -6 -6 -7 -6 -6 -6 -6 -5 -5 -6 -6 -7 -7 -7 -6 -6 -6 -7 -7 -7 -7 -8 -8 -8 -9 -9 -9 -9 -9 -9 -10 -10 -10
-7 -7 -7 -8 -8 -8 -6 -6 -6 -6 -6 -7 -7 -7 -6 -6 -6 -6 -6 -6 -6 -7 -7 -7 -7 -7 -7 -7 -7 -7 -7 -8 -8 -9 -9 -9 -9 -9 -10 -9 -9 -10 -10 -10
-8 -8 -9 -8 -8 -7 -5 -5 -5 -5 -6 -7 -7 -7 -7 -6 -7 -7 -6 -7 -7 -7 -7 -7 -8 -8 -8 -8 -8 -8 -8 -9 -9 -9 -10 -9 -10 -10 -10 -10 -10 -10 -10 -10
-7 -7 -7 -7 -7 -6 -5 -5 -5 -6 -6 -6 -6 -6 -6 -7 -7 -7 -7 -7 -7 -7 -7 -8 -9 -9 -9 -10 -10 -10 -10 -10 -10 -10 -10 -10 -10 -10 -10 -10 -10 -10 -10 -10
-6 -6 -6 -6 -6 -6 -6 -7 -6 -6 -6 -6 -6 -7 -7 -7 -7 -7 -8 -8 -8 -8 -9 -9 -10 -10 -10 -10 -10 -10 -10 -11 -11 -11 -11 -11 -11 -11 -11 -11 -10 -10 -10 -10
-6 -6 -6 -6 -6 -7 -7 -7 -6 -6 -6 -6 -7 -6 -7 -8 -8 -8 -8 -9 -9 -9 -10 -10 -11 -11 -11 -11 -11 -11 -11 -11 -11 -11 -11 -11 -11 -11 -11 -10 -11 -11 -11 -10
Height
5930 5933 5937 5936 5932 5933 5930 5938 5935 5940 5939 5933 5937 5938 5939 5936 5936 5934 5937 5937 5937 5937 5937 5936 5936 5936 5936 5937 5937 5936 5936 5936 5936 5936 5935 5934 5934 5933 5933 5932 5931 5931 5928 5926
5932 5935 5935 5935 5936 5933 5935 5942 5945 5946 5944 5940 5937 5924 5934 5939 5940 5939 5941 5939 5940 5941 5941 5940 5939 5938 5937 5937 5937 5937 5937 5937 5935 5935 5934 5934 5933 5932 5930 5930 5929 5928 5928 5926
5933 5938 5938 5938 5940 5939 5940 5944 5945 5947 5946 5943 5941 5937 5941 5943 5941 5940 5941 5940 5941 5942 5941 5940 5940 5939 5939 5938 5937 5937 5937 5936 5936 5935 5933 5932 5930 5930 5929 5928 5926 5924 5922 5920
5936 5938 5937 5938 5938 5940 5942 5943 5943 5943 5944 5944 5943 5945 5942 5941 5941 5940 5941 5940 5941 5940 5940 5940 5939 5938 5938 5938 5937 5936 5934 5933 5932 5931 5930 5929 5927 5925 5923 5922 5920 5918 5916 5914
5938 5937 5934 5934 5938 5940 5944 5943 5944 5946 5945 5944 5943 5942 5941 5942 5943 5940 5941 5937 5937 5934 5932 5935 5937 5935 5935 5934 5933 5931 5931 5929 5928 5926 5924 5923 5922 5920 5917 5915 5913 5912 5910 5908
5937 5936 5936 5935 5940 5945 5945 5944 5942 5944 5944 5944 5941 5944 5943 5943 5938 5938 5938 5937 5936 5933 5932 5927 5928 5929 5930 5930 5932 5932 5928 5927 5925 5923 5920 5918 5916 5914 5912 5909 5906 5904 5902 5900
5937 5936 5937 5937 5940 5942 5943 5945 5945 5942 5946 5947 5942 5940 5941 5941 5940 5940 5938 5935 5935 5933 5931 5928 5924 5921 5924 5924 5923 5926 5924 5922 5920 5919 5916 5914 5912 5909 5906 5903 5901 5898 5895 5892
5933 5937 5938 5939 5941 5943 5945 5945 5947 5947 5946 5946 5943 5942 5941 5940 5940 5941 5941 5940 5939 5936 5932 5929 5917 5921 5930 5925 5922 5921 5919 5916 5914 5912 5911 5908 5905 5902 5899 5895 5891 5889 5887 5884
5933 5935 5937 5941 5941 5943 5943 5945 5948 5948 5948 5945 5943 5942 5940 5940 5938 5938 5939 5939 5939 5936 5931 5930 5922 5915 5920 5920 5917 5917 5918 5910 5907 5905 5901 5901 5898 5895 5891 5888 5885 5882 5879 5877
5934 5933 5936 5940 5942 5943 5944 5946 5945 5945 5947 5943 5940 5938 5939 5937 5935 5937 5937 5936 5936 5934 5930 5928 5923 5917 5911 5912 5914 5913 5909 5902 5901 5898 5896 5893 5890 5887 5883 5879 5876 5874 5870 5866
5934 5933 5939 5942 5941 5941 5943 5942 5943 5943 5944 5942 5937 5939 5936 5937 5938 5936 5931 5931 5931 5932 5929 5924 5920 5919 5914 5908 5902 5899 5894 5895 5895 5891 5886 5884 5881 5877 5873 5870 5865 5861 5858 5854
5928 5936 5938 5940 5940 5941 5939 5938 5938 5940 5943 5942 5939 5937 5934 5935 5934 5928 5926 5927 5928 5927 5926 5925 5922 5916 5909 5903 5898 5893 5890 5892 5890 5886 5881 5878 5872 5867 5863 5859 5855 5850 5845 5840
5933 5935 5933 5935 5937 5939 5938 5938 5936 5937 5938 5938 5939 5933 5931 5928 5927 5925 5924 5921 5920 5919 5918 5917 5913 5905 5898 5894 5889 5887 5885 5882 5877 5875 5871 5867 5864 5858 5852 5848 5843 5838 5832 5827
5932 5933 5934 5934 5934 5934 5934 5935 5935 5934 5934 5934 5936 5928 5927 5925 5924 5923 5922 5919 5916 5914 5912 5911 5905 5896 5888 5885 5884 5880 5874 5864 5855 5857 5857 5855 5851 5846 5841 5836 5830 5824 5819 5814
5928 5931 5931 5929 5929 5930 5930 5929 5929 5930 5930 5929 5928 5923 5919 5921 5923 5920 5918 5915 5912 5908 5905 5901 5894 5885 5877 5873 5870 5868 5859 5854 5830 5854 5849 5842 5835 5833 5829 5823 5818 5811 5804 5798
5924 5925 5925 5927 5926 5924 5925 5926 5925 5925 5925 5920 5917 5915 5914 5914 5914 5912 5910 5905 5903 5899 5896 5891 5884 5880 5873 5864 5860 5856 5852 5849 5839 5833 5820 5820 5819 5820 5815 5805 5800 5793 5788 5783
5921 5921 5921 5921 5921 5921 5923 5920 5919 5920 5919 5916 5913 5911 5910 5910 5907 5904 5900 5898 5893 5890 5887 5883 5876 5870 5864 5857 5848 5844 5839 5834 5827 5815 5796 5810 5807 5799 5795 5786 5783 5775 5773 5769
5920 5917 5916 5916 5916 5917 5919 5917 5915 5911 5912 5909 5908 5906 5904 5902 5899 5895 5892 5888 5884 5881 5878 5873 5865 5858 5853 5846 5839 5828 5822 5815 5812 5805 5785 5788 5792 5785 5779 5769 5766 5765 5761 5757
5911 5911 5910 5908 5909 5912 5910 5911 5911 5907 5905 5902 5900 5898 5897 5894 5890 5885 5880 5875 5872 5868 5865 5861 5856 5849 5844 5838 5832 5824 5813 5804 5799 5794 5789 5784 5778 5771 5764 5760 5756 5753 5750 5744
5903 5903 5902 5899 5901 5902 5901 5905 5905 5901 5897 5896 5895 5891 5886 5882 5879 5874 5870 5865 5861 5856 5853 5848 5844 5840 5834 5827 5821 5815 5809 5802 5794 5786 5779 5774 5768 5762 5757 5752 5747 5741 5736 5729
5899 5897 5897 5894 5891 5894 5893 5898 5894 5893 5892 5888 5885 5880 5874 5871 5867 5862 5858 5853 5848 5843 5838 5833 5829 5825 5819 5814 5808 5801 5795 5788 5783 5777 5770 5763 5757 5751 5746 5741 5736 5727 5720 5715
5893 5895 5892 5888 5891 5891 5890 5887 5887 5885 5882 5879 5874 5869 5864 5861 5855 5851 5846 5841 5836 5833 5827 5820 5815 5810 5804 5799 5793 5787 5780 5774 5768 5762 5756 5750 5745 5738 5733 5727 5722 5714 5707 5702
5891 5889 5887 5886 5880 5876 5879 5879 5879 5877 5873 5869 5864 5860 5856 5851 5846 5840 5834 5830 5823 5818 5811 5805 5798 5792 5785 5779 5773 5768 5763 5758 5752 5746 5741 5736 5730 5724 5718 5713 5708 5701 5693 5689
5885 5882 5881 5879 5875 5871 5871 5871 5869 5866 5863 5858 5854 5849 5844 5839 5832 5827 5821 5815 5809 5803 5795 5788 5782 5775 5768 5762 5757 5752 5746 5737 5733 5731 5726 5721 5717 5712 5706 5699 5693 5687 5680 5676
5875 5875 5872 5870 5867 5867 5864 5861 5858 5855 5851 5847 5844 5838 5833 5827 5820 5814 5808 5800 5794 5788 5779 5772 5765 5758 5752 5746 5742 5737 5731 5713 5717 5715 5713 5709 5703 5698 5693 5688 5682 5678 5673 5668
5865 5864 5863 5862 5863 5859 5854 5850 5847 5843 5840 5836 5830 5825 5820 5814 5808 5801 5794 5787 5779 5771 5762 5754 5747 5739 5733 5728 5724 5722 5719 5710 5708 5707 5701 5697 5693 5687 5682 5678 5676 5669 5664 5661
Wind_Speed
16 19 17 21 13 19 17 18 18 16 14 8 13 12 16 17 14 17 12 11 12 11 11 9 9 8 7 6 7 8 8 5 4 4 7 8 9 10 10 10 9 10 13 15
13 20 18 16 14 8 18 15 10 14 9 6 12 7 28 18 19 14 11 12 14 11 10 7 6 5 3 3 4 5 4 5 6 8 9 9 10 11 12 12 13 13 11 12
18 15 14 10 14 13 14 7 13 7 6 1 8 8 20 20 23 18 9 7 13 11 7 7 7 3 4 4 5 6 7 8 9 10 10 9 10 10 11 12 14 15 17 18
15 12 11 17 12 10 15 14 5 3 5 12 15 8 15 17 25 18 2 7 4 16 11 9 9 5 6 6 7 9 10 11 12 13 14 15 16 18 19 21 22 23 22 21
16 15 1 19 12 12 14 10 8 6 5 7 13 15 11 15 19 20 12 26 21 23 30 14 12 10 11 10 10 13 13 14 16 17 18 20 21 21 22 23 22 21 22 23
7 15 8 11 3 15 16 10 10 14 11 18 10 10 6 16 19 16 15 20 23 28 31 33 27 25 24 8 8 19 17 20 21 20 22 23 24 24 24 24 25 27 29 29
7 11 10 17 23 10 7 11 13 17 16 15 2 6 5 12 18 9 14 23 27 28 29 30 35 26 23 26 22 5 14 22 22 23 21 22 22 22 24 26 26 28 31 34
12 13 6 13 4 7 5 8 4 11 15 7 5 5 16 17 1 3 8 12 17 19 18 22 31 29 20 27 17 12 15 19 27 27 27 28 30 31 32 32 32 31 30 30
18 14 10 3 7 12 8 4 9 9 5 15 9 12 9 6 16 18 7 20 9 10 17 22 29 37 35 7 21 36 19 21 26 34 38 37 36 35 36 35 33 35 36 37
3 17 11 10 6 5 7 8 10 4 2 13 8 7 10 13 8 12 18 24 20 16 22 23 24 31 38 38 33 36 36 29 39 38 41 43 40 39 38 38 39 41 44 44
9 6 10 7 8 4 5 8 7 8 6 11 15 11 14 7 11 19 24 21 19 21 22 24 26 28 33 40 44 46 44 35 45 45 46 45 43 41 41 43 44 46 48 50
9 14 8 8 10 11 4 2 9 9 13 2 5 7 9 6 5 10 18 20 25 24 23 23 24 25 35 39 42 44 44 44 47 48 47 43 45 47 47 48 49 50 53 55
6 6 5 4 12 5 11 7 15 1 4 5 4 9 16 21 27 24 28 34 38 32 32 31 34 38 39 38 40 40 41 43 45 45 44 43 45 50 51 52 53 54 56 58
13 18 17 4 6 6 7 9 8 9 13 11 13 21 26 27 24 28 35 39 40 37 37 38 39 43 46 45 43 42 41 41 44 38 43 39 42 51 50 53 55 56 56 57
17 22 25 19 15 11 14 13 14 11 11 13 17 27 35 35 34 35 34 33 37 38 39 42 46 49 52 54 52 46 51 51 53 37 53 47 50 50 47 55 55 55 55 57
10 14 21 25 23 23 23 11 5 4 16 21 24 28 30 32 33 33 35 37 39 42 45 47 48 49 48 50 50 49 51 54 63 45 54 41 42 53 54 52 55 55 54 56
2 13 15 14 14 12 7 9 16 14 20 26 32 37 36 32 32 33 37 39 43 46 46 47 47 47 45 46 51 52 53 52 56 68 19 41 50 47 52 54 59 56 55 52
17 24 23 18 19 20 12 17 23 27 28 29 30 31 30 31 33 36 40 43 44 45 45 45 45 46 46 48 52 56 56 56 54 55 56 60 45 57 58 56 56 55 54 53
11 12 23 25 18 14 19 23 22 24 26 31 34 34 33 32 37 42 45 47 47 47 48 47 45 46 47 49 51 53 56 56 55 54 53 54 53 52 55 58 57 54 54 55
18 25 25 26 22 21 10 24 31 30 35 33 34 36 38 40 43 46 48 50 50 50 48 48 48 48 50 52 53 53 53 54 55 56 56 55 55 57 57 55 53 53 53 54
24 27 33 27 28 21 21 33 39 38 37 37 39 40 43 45 48 51 53 54 55 53 51 52 53 54 56 56 55 55 56 55 55 54 53 54 54 55 53 50 48 51 52 48
27 30 30 16 24 36 41 39 34 34 36 38 38 43 47 50 53 54 55 56 55 52 51 54 56 57 57 57 57 57 56 55 52 51 51 49 49 49 47 45 46 49 49 45
27 30 36 38 44 47 40 35 35 35 37 38 42 46 48 49 50 52 54 54 55 55 57 60 61 61 61 60 57 55 53 52 51 49 47 46 47 44 44 47 48 48 48 41
35 38 41 41 43 43 40 38 38 39 41 43 46 47 49 49 50 53 54 56 58 60 63 63 62 59 58 54 51 50 50 52 45 45 46 46 43 42 45 47 45 44 39 33
34 34 36 36 37 37 39 39 41 42 44 46 46 46 48 50 52 55 57 61 63 61 61 59 58 57 54 50 48 47 44 38 32 40 44 43 42 43 43 40 39 33 31 28
30 33 35 34 33 34 38 41 43 45 47 46 48 51 50 52 55 58 59 59 59 58 61 59 57 56 53 51 46 43 44 48 41 42 40 39 39 40 40 36 32 33 26 22
Wind_Direction
94 106 139 118 73 50 72 67 47 23 38 328 26 73 49 45 47 54 45 53 66 59 54 61 66 73 73 80 69 72 82 72 36 21 359 354 351 347 348 345 333 327 321 325
138 123 122 100 112 68 105 95 76 51 44 18 357 308 29 23 28 54 44 60 53 34 29 22 41 61 67 37 17 13 18 4 355 344 339 336 339 346 347 339 331 327 320 310
123 132 118 73 70 54 103 101 81 67 56 289 294 3 25 20 5 3 27 61 65 31 20 5 344 336 333 329 326 318 320 327 330 328 323 324 336 341 335 330 328 322 318 317
120 113 82 108 92 76 101 101 79 266 265 357 354 336 24 14 6 353 5 55 355 356 31 14 334 328 330 308 317 297 297 312 320 324 328 328 328 330 328 329 326 323 318 311
153 149 68 76 73 111 121 101 37 293 12 48 42 7 50 357 6 29 10 353 355 358 353 356 19 2 348 335 338 333 327 328 326 326 327 326 324 321 318 316 313 308 304 304
127 127 123 105 92 115 101 75 287 41 46 8 25 33 45 350 357 13 4 355 360 355 348 348 345 347 346 330 337 336 333 330 323 317 318 317 314 311 309 310 310 309 307 305
183 131 125 132 140 147 288 83 10 18 355 1 23 318 339 341 343 337 12 4 349 354 346 334 333 317 338 323 316 334 333 326 325 323 317 311 306 302 300 301 301 300 301 301
132 133 98 144 205 139 107 62 83 58 4 341 189 251 339 335 7 99 44 4 328 334 341 328 300 308 313 321 334 5 329 325 321 321 318 313 309 307 304 303 302 302 302 303
146 118 76 351 192 171 156 89 65 18 358 293 311 301 337 310 310 350 340 330 320 259 272 284 280 291 310 344 338 323 321 328 317 314 316 314 310 306 302 299 298 300 301 300
126 106 102 99 142 133 163 153 150 113 80 338 312 58 337 321 303 311 314 304 325 322 305 316 316 310 303 302 301 307 314 326 317 312 306 304 303 300 298 299 299 299 298 299
82 110 116 124 110 199 298 292 214 209 191 21 355 355 359 230 262 288 291 317 333 323 315 308 305 304 301 304 307 311 318 314 305 301 299 301 299 297 295 297 299 301 302 302
127 73 32 139 245 250 16 0 186 229 209 216 338 317 177 165 267 270 278 307 325 306 292 292 300 296 301 304 306 307 309 298 293 290 291 296 301 300 300 299 299 300 300 302
173 153 18 135 204 152 124 311 323 346 219 225 214 234 245 257 277 279 292 304 317 307 305 312 315 309 302 301 301 301 293 287 287 289 291 292 298 300 300 300 298 298 300 301
199 183 176 229 293 154 215 223 257 325 323 249 217 273 280 280 287 290 293 297 300 299 306 311 308 304 302 304 303 297 290 281 276 272 281 288 297 294 295 299 299 297 298 300
205 213 203 203 232 222 249 249 245 247 249 264 263 258 255 261 271 278 286 292 292 300 305 308 308 308 310 310 310 299 307 305 314 299 293 277 301 290 293 299 297 298 301 302
232 218 222 228 243 243 256 293 314 307 248 257 259 259 266 276 285 292 294 291 302 303 304 305 305 306 305 305 306 306 305 312 302 318 309 261 297 296 299 290 302 302 305 303
220 247 258 272 271 278 265 230 263 258 256 257 262 275 291 297 293 293 293 298 299 299 300 300 304 303 302 304 306 308 310 311 313 321 258 314 304 299 305 304 303 310 306 303
284 293 289 291 291 290 281 244 256 274 276 282 286 286 291 296 297 292 295 295 295 298 301 303 305 305 307 308 309 311 311 311 311 313 306 307 307 299 303 307 307 304 304 305
259 245 272 282 277 290 271 276 275 276 292 299 298 301 303 297 293 297 298 303 306 307 308 307 305 305 305 306 308 308 308 307 307 306 303 302 302 302 302 303 303 304 304 301
220 254 249 251 259 268 277 287 290 284 290 298 307 305 301 296 296 298 302 303 305 307 307 305 304 303 305 305 304 304 304 303 302 301 301 300 299 298 299 301 302 301 301 303
238 247 253 280 293 286 300 288 298 288 297 302 305 302 298 298 300 303 304 306 307 309 309 305 303 303 303 303 303 302 301 299 297 296 295 296 296 297 298 299 302 301 303 304
258 264 266 312 282 278 289 300 298 301 303 303 301 297 299 301 302 303 304 304 305 304 302 300 302 302 301 300 299 298 297 295 294 293 294 294 295 297 297 299 302 303 303 302
272 277 286 288 285 290 297 294 296 298 300 299 294 296 299 300 301 300 300 303 302 302 302 303 303 303 301 301 301 299 297 296 296 298 299 300 300 301 301 303 306 304 300 294
262 267 270 277 284 287 292 297 298 296 295 298 301 303 302 302 301 302 303 304 305 305 305 305 305 304 303 304 303 301 301 297 298 304 303 302 300 300 303 305 305 305 298 293
272 274 275 275 279 287 293 296 294 299 300 301 303 302 303 304 305 306 308 306 307 309 308 308 308 305 303 300 298 297 297 292 305 303 301 303 302 303 305 305 306 306 305 303
273 271 274 280 287 292 289 291 297 298 301 304 305 306 307 308 307 308 309 311 313 311 309 309 308 305 301 295 290 293 296 295 306 301 299 303 305 306 306 306 307 313 305 296